Location: Pulvis Stellarum Observatory
(41.6962°N, 71.4263°W)
Time: 21:02:35
(UTC-05:00)

Daily predictions for brighter satellites

Satellite Brightness Start Highest point End
(mag) Time Altitude Azimuth Time Altitude Azimuth Time Altitude Azimuth
IRAS Rocket 4.4 17:42:36 10° SSE 17:48:14 84° WSW 17:53:55 10° NNW
Aureole 2 4.4 17:47:05 10° NNW 17:51:00 78° ENE 17:54:20 10° SSE
Cosmos 2221 Rocket 3.7 17:47:01 10° N 17:51:27 84° W 17:55:52 10° S
FENGYUN 3A 3.6 17:49:31 10° SSE 17:54:54 76° ENE 18:00:19 10° N
NOSS 3-2 (A) 3.4 17:49:14 10° SSW 17:55:05 73° ESE 18:01:34 10° NE
ATLAS 3B R/B 3.1 17:48:24 10° SW 17:55:40 73° NW 18:02:40 10° NNE
Cosmos 405 4.0 17:52:49 10° SSE 17:55:45 26° E 17:58:43 10° NE
FREGAT/IRIS 4.1 17:55:17 10° ESE 17:57:22 18° ENE 17:59:28 10° NNE
Cosmos 2297 Rocket 2.5 17:52:50 10° S 17:58:11 45° ESE 18:03:32 10° NE
H-2A R/B 3.4 17:55:30 10° SE 17:59:04 34° ENE 18:02:39 10° N
Cosmos 1624 Rocket 4.0 17:54:17 10° NNW 17:59:31 74° ENE 18:04:42 10° SSE
Cosmos 2285 Rocket 4.0 17:53:39 10° S 17:59:56 73° ESE 18:06:18 10° NNE
COSMO-SKYMED 1 2.8 18:02:29 10° N 18:06:50 74° WNW 18:11:09 10° SSW
Lacrosse 5 1.8 18:04:24 10° NW 18:09:29 85° NE 18:14:32 10° SE
USA 238 DEB 4.4 18:03:43 10° SW 18:10:29 57° NW 18:17:22 10° NNE
USA 238 4.4 18:03:49 10° SW 18:10:35 58° NW 18:17:28 10° NNE
DMSP B5D1-3 4.5 18:07:26 10° NNE 18:12:34 69° ESE 18:17:41 10° S
ALOS 2.8 18:09:45 10° S 18:14:23 66° W 18:19:03 10° NNW
Cosmos 2333 Rocket 2.9 18:12:08 10° NNW 18:17:42 59° WSW 18:23:12 10° S
Cosmos 1812 3.1 18:14:16 10° N 18:17:58 41° ENE 18:21:38 10° SSE
Cosmos 44 3.9 18:18:16 10° NNW 18:22:59 39° NE 18:27:19 13° ESE
Thor Agena Rocket 4.3 18:19:17 10° NE 18:23:43 29° E 18:28:05 10° SSE
Cosmos 2082 3.6 18:19:07 10° SSW 18:24:39 67° ESE 18:30:16 10° NNE
ERS-2 2.2 18:23:07 10° SSE 18:26:43 55° ENE 18:30:20 10° N
CZ-4C R/B 4.4 18:24:10 10° NNW 18:28:08 16° NNE 18:31:43 11° NE
Envisat 3.6 18:29:21 10° SE 18:33:55 35° ENE 18:38:30 10° N
Cosmos 1674 Rocket 3.4 18:30:12 10° N 18:34:34 72° E 18:38:52 10° SSE
Cosmos 1437 Rocket 4.4 18:32:40 10° SE 18:34:15 18° ESE 18:34:15 18° ESE
SL-8 R/B 3.9 18:33:17 10° SW 18:37:56 54° SE 18:40:35 24° ENE
USA 215 3.3 18:31:27 10° NE 18:37:56 67° SE 18:44:25 10° SW
Cosmos 1633 2.6 18:34:55 10° S 18:38:22 49° E 18:41:49 10° NNE
Cosmos 1908 Rocket 3.7 18:36:48 10° SSE 18:41:07 50° E 18:45:27 10° NNE
EO 1 Del DPAF 4.0 18:39:24 10° N 18:43:10 54° WNW 18:46:53 10° SSW
SeaSat 1 2.5 18:38:22 10° SE 18:43:10 54° ENE 18:47:58 10° NNW
Cosmos 1980 4.4 18:38:03 10° NNW 18:43:37 56° WSW 18:49:09 10° S
ARGOS Delta rocket 4.2 18:40:37 10° NNE 18:45:15 40° E 18:49:37 10° SSE
NOSS 3-2 (C) 3.7 18:41:08 10° SW 18:47:02 70° NW 18:53:38 10° NNE
Aureole 3 4.2 18:41:38 10° S 18:47:58 87° W 18:52:57 10° N
HJ-1C 3.3 18:45:58 10° SSE 18:49:23 71° ENE 18:52:48 10° N
Cosmos 1733 Rocket 3.9 18:45:37 10° SSW 18:49:48 52° W 18:54:03 10° N
FengYun 1-2 T 4.3 18:45:21 10° S 18:50:52 78° WSW 18:56:23 10° NNW
Resurs 01 Rocket 2.3 18:55:49 32° ENE 18:55:49 32° ENE 18:59:33 10° N
Cosmos 921 Rocket 3.5 18:52:06 10° N 18:56:20 38° ENE 18:56:51 37° E
Cosmos 1513 Rocket 4.4 18:50:20 10° N 18:56:42 71° E 19:02:57 10° SSE
Okean 3 3.6 18:55:11 10° NNW 18:59:21 73° W 19:03:30 10° S
Shenzhou-11 Module 4.5 19:02:40 10° WSW 19:04:36 16° SSW 19:05:43 14° S
Cosmos 1975 Rocket 3.2 19:03:47 10° N 19:07:56 47° ENE 19:07:56 47° ENE
SJ-6B 2.8 19:05:48 10° S 19:09:31 74° WSW 19:13:21 10° NNW
Tsikada Rocket 4.1 19:03:33 10° SSE 19:09:45 55° E 19:15:59 10° NNE
USA 186 4.2 19:13:20 15° N 19:13:20 15° N 19:13:58 10° N
USA 267 3.7 19:08:44 32° ENE 19:11:11 44° NNE 19:17:19 10° NW
Cosmos 1452 Rocket 4.0 19:13:17 10° NNW 19:18:29 59° WSW 19:23:36 10° S
Meteor 1-13 Rocket 4.4 19:13:59 10° N 19:19:04 45° ENE 19:19:04 45° ENE
CENTAUR R/B 2.4 19:13:28 10° SSW 19:19:26 86° ESE 19:24:34 19° NE
Okean 1 3.3 19:19:03 10° N 19:23:04 79° W 19:23:56 53° S
Spot 2 Rocket 3.6 19:24:28 52° NE 19:24:28 52° NE 19:29:01 10° N
Cosmos 44 Rocket 3.3 19:19:27 10° NNW 19:24:31 86° WSW 19:25:59 48° SSE
Tiangong 2 2.7 19:23:09 10° W 19:25:22 33° WSW 19:25:22 33° WSW
Cosmos 1048 Rocket 3.9 19:21:19 10° SSW 19:26:40 89° WNW 19:31:17 14° NNE
Geosat 3.8 19:25:09 34° NNE 19:27:23 81° ESE 19:32:25 10° SSW
Cosmos 2227 Rocket 3.9 19:23:02 10° WSW 19:28:01 31° NW 19:33:01 10° N
Cosmos 2237 Rocket 4.3 19:23:44 10° NW 19:28:16 25° WSW 19:32:47 10° SSW
Sich 1 Rocket 4.1 19:26:05 10° SSW 19:30:33 61° W 19:35:01 10° N
SL-16 R/B 2.6 19:25:27 10° NNW 19:31:02 61° WSW 19:35:31 16° S
Cosmos 1782 Rocket 3.9 19:34:07 10° SSW 19:38:32 66° W 19:42:57 10° N
Cosmos 2297 Rocket 4.1 19:37:35 10° WSW 19:42:23 28° NW 19:47:15 10° N
Cosmos 1603 4.0 19:43:38 10° NNW 19:48:13 53° NNE 19:48:13 53° NNE
Lacrosse 5 4.5 19:48:54 10° W 19:51:49 15° WSW 19:54:43 10° SSW
Meteor 2-4 Rocket 4.4 20:10:17 10° NNW 20:14:43 52° NNW 20:14:43 52° NNW
CZ-4C R/B 3.6 20:11:44 10° NNW 20:16:55 40° NNE 20:16:55 40° NNE
Cosmos 1634 Rocket 4.5 20:12:43 10° N 20:17:18 52° NNW 20:17:18 52° NNW
USA 215 4.1 20:18:49 35° N 20:20:44 43° NNW 20:26:49 10° W
Resurs 01 Rocket 4.0 20:33:23 20° WNW 20:33:23 20° WNW 20:35:39 10° NW
USA 267 4.1 20:56:05 44° WNW 20:56:05 44° WNW 21:00:31 10° NW
CENTAUR R/B 4.4 21:05:56 10° W 21:11:05 25° NNW 21:11:52 24° NNW
